Stations météo

Publicité
Nice, France (7690): Température de l'air & dewpoint: 19.06.2018 06:00:00 - 25.06.2018 06:00:00 (CEST)Nice, France (7690): Température de l'air 5cm: 19.06.2018 06:00:00 - 25.06.2018 06:00:00 (CEST)Nice, France (7690): Température de l'air -20cm & Température de l'air -100cm: 19.06.2018 06:00:00 - 25.06.2018 06:00:00 (CEST)Nice, France (7690): Vitesse du vent & gusts: 19.06.2018 06:00:00 - 25.06.2018 06:00:00 (CEST)Nice, France (7690): Direction du vent: 19.06.2018 06:00:00 - 25.06.2018 06:00:00 (CEST)Nice, France (7690): reduced air pressure: 19.06.2018 06:00:00 - 25.06.2018 06:00:00 (CEST)Nice, France (7690): visibility: 19.06.2018 06:00:00 - 25.06.2018 06:00:00 (CEST)Nice, France (7690): Ensoleillement: 19.06.2018 06:00:00 - 25.06.2018 06:00:00 (CEST)Nice, France (7690): Quantités de précipitations: 19.06.2018 06:00:00 - 25.06.2018 06:00:00 (CEST)
Date & Time tt [°C] td [°C] tt 5cm [°C] tt -20cm [°C] tt -100cm [°C] ff [km/h] ff [knt] fx [km/h] fx [knt] dd ppp [hPa] vv [km] sd [min] rr [mm]
25.06.2018 06:00:00 17,6 12,5 - - - 13 7 21 11 NNW 1014,3 40 0 -
25.06.2018 05:00:00 17,7 12,8 17,0 23,7 22,5 13 7 26 14 NNW 1014,2 40 0 0,0
25.06.2018 04:00:00 17,9 13,0 17,1 23,6 22,5 16 9 29 16 NNW 1014,5 40 0 0,0
25.06.2018 03:00:00 18,0 13,3 17,3 23,7 22,4 22 12 28 15 NNW 1014,9 40 0 0,0
25.06.2018 02:00:00 18,3 13,6 17,4 23,7 22,5 14 7 20 11 NNW 1015,5 40 0 0,0
25.06.2018 01:00:00 18,6 13,9 17,8 23,7 22,4 10 5 23 12 N 1015,8 40 0 0,0
25.06.2018 00:00:00 19,0 14,0 17,8 23,7 22,5 9 5 19 11 NNW 1016,1 40 0 0,0
24.06.2018 23:00:00 19,6 14,2 18,3 23,6 22,5 16 8 26 14 NNW 1016,6 40 0 0,0
24.06.2018 22:00:00 19,9 14,3 18,5 23,7 22,5 8 4 16 9 NNW 1015,9 40 0 0,0
24.06.2018 21:00:00 20,0 14,6 19,2 23,7 22,4 10 5 24 13 N 1015,2 40 51 0,0
24.06.2018 20:00:00 20,3 15,1 18,3 23,7 22,4 20 11 37 20 N 1015,4 40 5 0,0
24.06.2018 19:00:00 19,7 15,3 16,8 23,7 22,4 11 6 22 12 N 1016,0 40 0 1,0
24.06.2018 18:00:00 18,1 15,4 16,6 23,7 22,4 14 8 47 26 N 1017,1 10 0 3,0
24.06.2018 17:00:00 21,0 15,1 19,0 23,7 22,4 24 13 37 20 N 1016,9 20 0 0,4
24.06.2018 16:00:00 24,2 18,4 25,7 23,7 22,4 22 12 29 15 E 1016,3 40 12 0,0
24.06.2018 15:00:00 25,7 18,6 32,8 23,7 22,3 19 11 23 13 E 1015,9 40 60 0,0
24.06.2018 14:00:00 25,4 18,3 33,4 23,7 22,3 21 11 25 14 E 1016,3 40 60 0,0
24.06.2018 13:00:00 25,4 18,3 29,4 23,7 22,4 20 11 24 13 E 1016,8 40 43 0,0
24.06.2018 12:00:00 24,9 18,8 29,8 23,8 22,4 19 10 23 13 E 1017,2 40 57 0,0
24.06.2018 11:00:00 24,8 17,5 26,7 23,8 22,4 19 10 23 12 E 1017,0 40 19 0,0
24.06.2018 10:00:00 24,3 16,3 26,7 23,8 22,3 11 6 20 11 ENE 1017,3 40 31 0,0
24.06.2018 09:00:00 23,9 16,2 22,9 23,8 22,4 8 4 18 10 NNE 1017,1 40 22 0,0
24.06.2018 08:00:00 21,8 15,4 21,7 23,8 22,4 11 6 21 12 N 1016,9 40 21 0,0
24.06.2018 07:00:00 21,0 15,1 19,9 23,8 22,4 11 6 18 10 NNW 1016,4 40 28 0,0
24.06.2018 06:00:00 20,7 15,3 20,0 23,7 22,3 12 7 19 11 NNW 1016,3 50 0 0,0
24.06.2018 05:00:00 21,0 15,5 20,1 23,7 22,3 14 8 19 10 NNW 1016,2 30 0 0,0
24.06.2018 04:00:00 20,9 15,7 20,2 23,7 22,3 12 6 19 10 NNW 1016,4 30 0 0,0
24.06.2018 03:00:00 21,2 15,9 20,5 23,7 22,3 13 7 18 10 NNW 1016,7 43 0 0,0
24.06.2018 02:00:00 21,8 16,3 21,0 23,7 22,3 11 6 20 11 NNW 1017,0 30 0 0,0
24.06.2018 01:00:00 22,4 16,4 21,5 23,7 22,3 16 8 20 11 NNW 1017,2 30 0 0,0
24.06.2018 00:00:00 22,4 17,1 21,5 23,7 22,4 10 5 16 8 NNW 1017,3 30 0 0,0
23.06.2018 23:00:00 23,3 17,5 22,1 23,7 22,3 7 4 15 8 NNW 1017,2 30 0 0,0
23.06.2018 22:00:00 23,9 15,9 23,1 23,7 22,2 9 5 13 7 NW 1016,8 30 0 0,0
23.06.2018 21:00:00 24,3 16,0 23,8 23,7 22,2 9 5 15 8 WNW 1016,5 30 5 0,0
23.06.2018 20:00:00 24,5 15,1 25,0 23,7 22,2 8 5 12 6 W 1016,5 20 0 0,0
23.06.2018 19:00:00 24,1 15,0 25,3 23,7 22,2 6 4 10 6 W 1016,6 20 7 0,0
23.06.2018 18:00:00 24,7 15,6 29,8 23,7 22,2 6 4 9 5 S 1016,9 20 44 0,0
23.06.2018 17:00:00 25,1 17,0 24,8 23,7 22,3 3 2 13 7 SSE 1017,3 31 9 0,0
23.06.2018 16:00:00 24,2 17,0 26,0 23,7 22,4 12 6 24 13 SE 1017,7 20 1 0,0
23.06.2018 15:00:00 24,7 17,2 27,2 23,7 22,3 22 12 34 19 SE 1017,5 20 19 0,0
23.06.2018 14:00:00 25,0 17,5 28,1 23,7 22,3 28 15 36 20 SE 1017,6 20 34 0,0
23.06.2018 13:00:00 25,7 18,1 31,4 23,7 22,2 30 16 38 21 ESE 1017,6 20 60 0,0
23.06.2018 12:00:00 25,8 18,7 30,8 23,7 22,2 29 16 37 20 ESE 1017,4 20 60 0,0
23.06.2018 11:00:00 25,1 18,5 30,4 23,7 22,2 24 13 32 17 SE 1017,3 20 60 0,0
23.06.2018 10:00:00 25,5 17,9 31,2 23,7 22,2 14 8 27 14 SE 1017,2 20 60 0,0
23.06.2018 09:00:00 24,4 17,9 28,3 23,7 22,2 8 4 12 6 W 1016,7 20 56 0,0
23.06.2018 08:00:00 23,1 19,9 21,6 23,7 22,2 3 2 12 7 NNW 1016,5 20 37 0,0
23.06.2018 07:00:00 21,7 19,4 21,0 23,7 22,2 5 3 17 9 N 1016,1 15 0 0,0
23.06.2018 06:00:00 21,7 19,6 21,2 23,7 22,2 15 8 20 11 NNW 1015,8 15 0 0,0
23.06.2018 05:00:00 21,9 19,6 21,4 23,7 22,1 13 7 16 9 NW 1015,4 15 0 0,0
23.06.2018 04:00:00 22,6 20,1 21,6 23,6 22,2 6 3 14 8 NNE 1015,3 15 0 0,0
23.06.2018 03:00:00 22,5 18,9 21,0 23,6 22,1 14 8 19 11 NNE 1014,8 15 0 0,0
23.06.2018 02:00:00 22,4 19,8 21,2 23,6 22,1 5 3 24 13 N 1014,4 15 0 0,0
23.06.2018 01:00:00 22,7 20,2 21,5 23,6 22,2 18 10 25 13 NNE 1014,6 15 0 0,0
23.06.2018 00:00:00 22,8 21,3 21,8 23,6 22,1 13 7 16 9 NNW 1014,2 10 0 1,4
22.06.2018 23:00:00 22,6 20,9 21,7 23,6 22,2 10 6 18 10 NNW 1014,2 8 0 3,0
22.06.2018 22:00:00 23,3 21,0 21,7 23,6 22,1 5 3 16 9 NNW 1013,4 15 0 0,2
22.06.2018 21:00:00 24,0 20,3 21,9 23,6 22,2 6 3 12 6 ENE 1012,7 15 0 0,2
22.06.2018 20:00:00 24,5 20,4 24,9 23,6 22,1 9 5 19 10 NE 1012,7 15 0 0,0
22.06.2018 19:00:00 24,6 20,5 25,1 23,6 22,1 14 8 24 13 ENE 1012,6 15 0 0,0
22.06.2018 18:00:00 25,0 21,1 25,9 23,6 22,1 13 7 22 12 ENE 1012,4 15 4 0,0
22.06.2018 17:00:00 24,9 21,0 26,2 23,6 22,2 16 9 26 14 ENE 1012,0 20 7 0,0
22.06.2018 16:00:00 25,8 21,0 28,0 23,6 22,0 18 10 32 17 E 1011,6 20 4 0,0
22.06.2018 15:00:00 26,0 20,6 28,0 23,6 22,2 29 15 36 19 E 1011,4 20 3 0,0
22.06.2018 14:00:00 25,7 20,7 28,1 23,6 22,0 21 11 33 18 E 1011,7 20 22 0,0
22.06.2018 13:00:00 26,4 21,4 35,2 23,6 22,1 9 5 19 11 E 1011,6 20 60 0,0
22.06.2018 12:00:00 26,4 21,6 34,5 23,6 22,1 16 8 21 12 E 1011,4 20 60 0,0
22.06.2018 11:00:00 26,2 21,8 32,8 23,6 22,0 13 7 23 13 E 1010,8 20 60 0,0
22.06.2018 10:00:00 25,6 19,7 30,6 23,5 21,9 17 9 22 12 E 1010,6 20 60 0,0
22.06.2018 09:00:00 25,9 18,3 26,2 23,6 21,9 9 5 17 9 ENE 1010,8 20 60 0,0
22.06.2018 08:00:00 23,4 17,4 22,1 23,5 22,0 11 6 21 12 NNW 1010,7 20 33 0,0
22.06.2018 07:00:00 21,9 17,3 21,4 23,5 22,0 15 8 19 11 NNW 1010,7 20 0 0,0
22.06.2018 06:00:00 22,1 17,2 21,3 23,5 22,0 11 6 18 10 NNW 1010,9 20 0 0,0
22.06.2018 05:00:00 22,7 17,8 21,5 23,5 22,0 7 4 12 7 NNW 1011,2 20 0 0,0
22.06.2018 04:00:00 22,8 17,7 21,0 23,5 21,9 7 4 11 6 NNW 1011,4 20 0 0,0
22.06.2018 03:00:00 22,7 17,8 21,4 23,5 22,0 7 4 13 7 NE 1011,8 20 0 0,0
22.06.2018 02:00:00 23,3 18,8 22,3 23,5 21,9 5 3 18 10 NNE 1012,3 20 0 0,0
22.06.2018 01:00:00 23,8 21,5 22,9 23,4 21,9 13 7 17 9 ENE 1012,7 20 0 0,0
22.06.2018 00:00:00 24,5 18,0 21,9 23,4 21,9 9 5 15 8 N 1012,8 30 0 0,0
21.06.2018 23:00:00 23,1 18,8 22,1 23,4 21,9 10 5 16 9 WNW 1012,4 30 0 0,0
21.06.2018 22:00:00 23,4 20,9 22,3 23,4 22,0 9 5 16 9 WSW 1012,6 30 0 0,0
21.06.2018 21:00:00 23,6 20,1 23,0 23,4 21,7 9 5 12 6 WSW 1012,7 30 0 0,0
21.06.2018 20:00:00 24,3 20,4 24,4 23,4 21,9 8 5 13 7 SSW 1013,1 30 5 0,0
21.06.2018 19:00:00 25,4 21,3 26,8 23,3 21,8 7 4 8 5 S 1013,9 30 8 0,0
21.06.2018 18:00:00 25,5 20,3 26,4 23,4 21,9 6 3 10 5 ESE 1014,3 30 0 0,0
21.06.2018 17:00:00 25,4 20,6 27,0 23,4 21,9 5 3 10 6 S 1014,8 30 0 0,0
21.06.2018 16:00:00 26,4 20,7 30,5 23,4 21,8 6 3 12 6 S 1015,3 30 37 0,0
21.06.2018 15:00:00 26,7 21,0 36,7 23,4 21,9 7 4 13 7 ESE 1015,5 30 60 0,0
21.06.2018 14:00:00 26,9 21,0 36,0 23,4 21,8 10 5 13 7 SSE 1015,8 30 60 0,0
21.06.2018 13:00:00 26,5 21,0 34,8 23,4 21,9 9 5 13 7 E 1016,1 30 60 0,0
21.06.2018 12:00:00 26,0 21,0 35,3 23,4 21,8 8 4 13 7 SE 1016,6 30 60 0,0
21.06.2018 11:00:00 26,7 20,1 34,1 23,4 21,8 9 5 12 7 E 1016,5 30 60 0,0
21.06.2018 10:00:00 26,3 19,4 32,6 23,4 21,7 8 5 13 7 ENE 1016,8 30 60 0,0
21.06.2018 09:00:00 26,7 16,9 29,5 23,4 21,8 11 6 22 12 NE 1017,0 30 60 0,0
21.06.2018 08:00:00 25,6 15,3 25,1 23,4 21,8 10 5 24 13 N 1016,8 30 60 0,0
21.06.2018 07:00:00 24,3 15,2 23,3 23,3 21,7 16 9 25 13 NNW 1016,6 30 42 0,0
21.06.2018 06:00:00 23,9 14,9 23,1 23,3 21,7 17 9 24 13 NNW 1016,5 30 0 0,0
21.06.2018 05:00:00 24,1 15,0 23,3 23,3 21,6 13 7 22 12 N 1016,6 40 0 0,0
21.06.2018 04:00:00 24,5 15,1 23,7 23,3 21,7 13 7 21 12 NNW 1017,2 40 0 0,0
21.06.2018 03:00:00 24,7 15,1 23,5 23,3 21,8 15 8 21 11 NNW 1017,5 40 0 0,0
21.06.2018 02:00:00 24,6 15,0 23,0 23,3 21,7 12 6 16 9 NNW 1017,8 40 0 0,0
21.06.2018 01:00:00 24,7 14,5 23,3 23,3 21,7 12 6 17 9 NNW 1018,0 40 0 0,0
21.06.2018 00:00:00 25,2 14,3 23,8 23,2 21,7 10 5 14 8 NNW 1018,2 40 0 0,0
20.06.2018 23:00:00 26,1 14,2 22,2 23,2 21,7 6 4 10 5 N 1018,3 40 0 0,0
20.06.2018 22:00:00 25,6 17,0 23,0 23,2 21,7 3 2 10 5 ESE 1018,0 40 0 0,0
20.06.2018 21:00:00 25,6 15,0 24,1 23,2 21,6 5 3 9 5 SSW 1017,8 40 0 0,0
20.06.2018 20:00:00 26,7 16,3 27,5 23,2 21,7 6 3 10 6 S 1017,7 40 9 0,0
20.06.2018 19:00:00 27,5 16,1 30,4 23,2 21,6 7 4 9 5 S 1017,6 40 24 0,0
20.06.2018 18:00:00 30,5 13,3 38,2 23,2 21,6 5 3 16 8 SE 1017,9 35 60 0,0
20.06.2018 17:00:00 29,2 15,3 37,7 23,2 21,7 9 5 16 9 SSW 1018,4 35 60 0,0
20.06.2018 16:00:00 29,5 13,7 39,2 23,2 21,7 10 5 16 9 SW 1018,8 35 60 0,0
20.06.2018 15:00:00 29,3 17,2 40,4 23,2 21,7 10 5 13 7 S 1019,1 35 60 0,0
20.06.2018 14:00:00 28,9 13,9 36,4 23,2 21,6 9 5 13 7 SSW 1019,4 35 54 0,0
20.06.2018 13:00:00 29,2 16,0 39,8 23,2 21,7 6 4 9 5 S 1019,8 35 60 0,0
20.06.2018 12:00:00 29,7 14,7 34,2 23,2 21,6 3 1 8 4 E 1020,3 35 36 0,0
20.06.2018 11:00:00 28,5 14,7 26,6 23,2 21,7 5 3 19 10 NE 1020,3 35 14 0,0
20.06.2018 10:00:00 25,4 15,7 26,7 23,2 21,6 14 8 20 11 NNW 1020,2 30 2 0,0
20.06.2018 09:00:00 24,8 15,7 24,3 23,2 21,6 16 8 21 11 NNW 1019,9 30 0 0,0
20.06.2018 08:00:00 23,8 15,3 23,8 23,2 21,6 14 7 27 15 NNW 1019,7 30 0 0,0
20.06.2018 07:00:00 23,9 15,1 22,7 23,2 21,6 13 7 22 12 NNW 1019,3 30 0 0,0
20.06.2018 06:00:00 23,6 14,9 22,6 23,1 21,6 12 6 20 11 NNW 1018,9 30 0 0,0
20.06.2018 05:00:00 24,1 14,5 22,9 23,1 21,6 13 7 20 11 NNW 1018,5 30 0 0,0
20.06.2018 04:00:00 24,7 14,5 23,3 23,1 21,5 11 6 21 11 N 1018,4 30 0 0,0
20.06.2018 03:00:00 24,7 14,8 23,5 23,1 21,6 16 8 22 12 N 1018,3 30 0 0,0
20.06.2018 02:00:00 24,4 14,8 23,4 23,0 21,5 14 8 22 12 NNW 1018,7 30 0 0,0
20.06.2018 01:00:00 24,7 15,1 23,2 23,0 21,6 14 8 19 11 NNW 1018,7 30 0 0,0
20.06.2018 00:00:00 24,4 15,6 21,6 23,0 21,5 13 7 17 9 NNW 1018,7 30 0 0,0
19.06.2018 23:00:00 24,3 18,5 21,2 23,0 21,5 3 2 7 4 E 1018,6 30 0 0,0
19.06.2018 22:00:00 24,7 16,9 21,6 23,0 21,5 2 1 12 6 SSW 1018,1 30 0 0,0
19.06.2018 21:00:00 24,9 19,5 24,6 23,0 21,5 9 5 13 7 SSW 1017,5 40 48 0,0
19.06.2018 20:00:00 26,1 20,2 28,4 23,0 21,5 6 3 9 5 S 1017,5 40 60 0,0
19.06.2018 19:00:00 26,8 19,9 32,5 23,0 21,5 5 3 8 4 SSE 1017,8 40 60 0,0
19.06.2018 18:00:00 27,0 19,1 34,6 23,0 21,5 5 3 9 5 SE 1018,3 40 60 0,0
19.06.2018 17:00:00 26,8 19,7 35,4 23,0 21,6 7 4 9 5 SE 1018,7 40 60 0,0
19.06.2018 16:00:00 26,5 20,6 36,1 23,0 21,5 6 3 9 5 ESE 1019,0 40 60 0,0
19.06.2018 15:00:00 26,7 20,3 36,1 23,0 21,4 5 3 12 6 ESE 1019,3 40 60 0,0
19.06.2018 14:00:00 26,4 20,5 35,5 23,0 21,4 9 5 14 8 ESE 1019,4 40 60 0,0
19.06.2018 13:00:00 27,2 19,5 34,6 23,0 21,4 12 6 20 11 ESE 1019,5 40 60 0,0
19.06.2018 12:00:00 26,9 19,0 34,3 23,0 21,4 16 9 19 10 ESE 1019,5 40 60 0,0
19.06.2018 11:00:00 26,9 17,9 34,8 23,0 21,4 10 6 15 8 E 1019,5 40 60 0,0
19.06.2018 10:00:00 27,4 16,7 33,4 23,0 21,4 5 3 10 6 ENE 1019,3 40 60 0,0
19.06.2018 09:00:00 26,7 15,4 28,4 22,9 21,4 7 4 16 9 NNE 1019,2 40 60 0,0
19.06.2018 08:00:00 24,7 15,3 24,6 22,9 21,4 10 6 23 12 NNW 1018,8 40 60 0,0
19.06.2018 07:00:00 23,4 14,9 22,0 22,9 21,4 12 7 23 12 NNW 1018,4 40 43 0,0
19.06.2018 06:00:00 22,8 14,9 21,9 22,9 21,5 15 8 23 13 NNW 1017,7 40 0 0,0

tt = Température de l'air
td = dewpoint
tt 5cm = Température de l'air 5cm
tt -20cm = Température de l'air -20cm
tt -100cm = Température de l'air -100cm
ff = Vitesse du vent
fx = gusts
dd = Direction du vent
ppp = reduced air pressure
vv = visibility
sd = Ensoleillement
rr = Quantités de précipitations

stations d'obs. à proximité